Flag for Belgium Weather past 2 weeks in Antwerp, Belgium

Now
54 °F

Sunny.


Feels Like: 54 °F
Forecast: 52 / 62 °F
Wind: 1 mph from North

Location: Antwerp / Deurne

Current Time: May 27, 2015 at 8:26:13 AM

Latest Report: May 27, 2015 at 7:50 AM


Visibility: 10 mi

Pressure: 30.27 "Hg

Humidity: 72%

Dew point: 45 °F

Location of AntwerpLocation

Historic Weather in Antwerp — Graph

°F

Antwerp temperature yesterday

Maximum temperature yesterday: 63 °F (at 1:50 PM)
Minimum temperature yesterday: 45 °F (at 4:50 AM)
Average temperature yesterday: 55 °F

Past Weeks' High & Low Weather Summary

 TemperatureHumidityPressure
High68 °F (May 22, 4:50 PM)94% (May 16, 1:20 PM)30.36 "Hg (May 16, 1:20 PM)
Low41 °F (May 17, 1:20 AM)28% (May 13, 2:50 PM)29.65 "Hg (May 18, 8:20 PM)
Average55 °F66%30.09 "Hg
* Reported May 12 7:20 AM — May 27 7:20 AM, Antwerp, Weather by CustomWeather, © 2015

Note: Actual official high and low records may vary slightly from our data, if they occured in-between our weather recording intervals... More about our weather records

Advertising

Antwerp weather history for previous 24 hours

 ConditionsComfort  
Time TempWeatherWind HumidityBarometerVisibility
7:20 AM
Wed, May 27
50 °FSunny.1 mph82%30.27 "Hg10 mi
6:50 AM46 °FSunny.2 mph82%30.27 "Hg10 mi
6:20 AM45 °FClear.1 mph81%30.27 "Hg10 mi
5:50 AM43 °FClear.2 mph81%30.27 "Hg10 mi
5:20 AM43 °FClear.2 mph81%30.27 "Hg10 mi
4:50 AM43 °FClear.3 mph81%30.27 "Hg10 mi
4:20 AM46 °FClear.1 mph82%30.27 "Hg10 mi
3:50 AM48 °FClear.1 mph76%30.27 "Hg10 mi
3:20 AM48 °FClear.1 mph76%30.27 "Hg10 mi
2:50 AM52 °FClear.1 mph67%30.27 "Hg10 mi
2:20 AM54 °FClear.2 mph63%30.27 "Hg10 mi
1:50 AM54 °FClear.2 mph67%30.27 "Hg10 mi
1:20 AM54 °FClear.3 mph63%30.27 "Hg10 mi
12:50 AM54 °FPassing clouds.3 mph58%30.27 "HgN/A
12:20 AM54 °FClear.2 mph58%30.27 "Hg10 mi
11:50 PM
Tue, May 26
54 °FClear.1 mph58%30.27 "Hg10 mi
11:20 PM55 °FPassing clouds.3 mph55%30.27 "HgN/A
10:50 PM55 °FPassing clouds.3 mph55%30.27 "HgN/A
10:20 PM54 °FPassing clouds.3 mph63%30.27 "HgN/A
9:50 PM55 °FPassing clouds.6 mph55%30.27 "HgN/A
9:20 PM55 °FSunny.8 mph55%30.24 "Hg10 mi
8:50 PM57 °FPassing clouds.10 mph51%30.24 "HgN/A
8:20 PM57 °FPassing clouds.9 mph51%30.24 "HgN/A
7:50 PM59 °FPassing clouds.8 mph48%30.21 "HgN/A
7:20 PM59 °FPassing clouds.10 mph48%30.21 "HgN/A
6:50 PM61 °FPassing clouds.10 mph48%30.21 "HgN/A
6:20 PM61 °FSunny.15 mph45%30.21 "Hg10 mi
5:50 PM61 °FPassing clouds.14 mph45%30.21 "HgN/A
5:20 PM63 °FPassing clouds.12 mph42%30.18 "HgN/A
4:50 PM63 °FPassing clouds.10 mph42%30.18 "HgN/A
4:20 PM63 °FPassing clouds.13 mph42%30.18 "HgN/A
3:50 PM63 °FPassing clouds.13 mph45%30.18 "HgN/A
3:20 PM63 °FPassing clouds.13 mph39%30.18 "HgN/A
2:50 PM63 °FPassing clouds.10 mph39%30.18 "HgN/A
2:20 PM61 °FPassing clouds.10 mph42%30.18 "HgN/A
1:50 PM63 °FPassing clouds.13 mph42%30.18 "HgN/A
1:20 PM61 °FPassing clouds.13 mph39%30.18 "HgN/A
12:50 PM61 °FScattered clouds.10 mph39%30.18 "HgN/A
12:20 PM61 °FPassing clouds.7 mph39%30.18 "HgN/A
11:50 AM59 °FPassing clouds.10 mph42%30.18 "HgN/A
11:20 AM59 °FPassing clouds.8 mph45%30.18 "HgN/A
10:50 AM59 °FPassing clouds.5 mph45%30.18 "HgN/A
10:20 AM55 °FPassing clouds.6 mph55%30.15 "HgN/A
9:50 AM55 °FPassing clouds.6 mph55%30.15 "HgN/A
9:20 AM54 °FPassing clouds.6 mph58%30.15 "HgN/A
8:50 AM54 °FPassing clouds.8 mph63%30.15 "HgN/A
8:20 AM54 °FPassing clouds.8 mph67%30.15 "HgN/A
Weather by CustomWeather, © 2015

See weather overviewHow to use our weather pages